Regional Weather Roundup
Issued by NWS Charleston, WV

Home | Current Version | Previous Version | Graphics & Text | Print | Product List | Glossary Off
Versions: 1 2 3 4 5 6 7 8 9 10 11 12 13 14 15 16 17 18 19 20 21 22 23 24 25 26 27 28 29 30 31 32 33 34 35 36 37 38 39 40 41 42 43 44 45 46 47 48 49 50

000
ASUS41 KRLX 211210
RWRRLX
West Virginia Regional Weather Roundup
National Weather Service Charleston WV
800 AM EDT TUE APR 21 2015

Note: "fair" indicates few or no clouds below 12,000 feet with no
significant weather and/or obstructions to visibility.

WVZ003-211300-
Northern Panhandle of West Virginia

CITY           SKY/WX    TMP DP  RH WIND       PRES   REMARKS
WHEELING       NOT AVBL
$$

WVZ009-211300-
Northwest West Virginia

CITY           SKY/WX    TMP DP  RH WIND       PRES   REMARKS
PARKERSBURG    SUNNY     46  35  65 SW5       29.84S
$$

WVZ006-211300-
Western West Virginia

CITY           SKY/WX    TMP DP  RH WIND       PRES   REMARKS
HUNTINGTON     SUNNY     45  35  68 SW6       29.86R
$$

WVZ015-211300-
West Central West Virginia

CITY           SKY/WX    TMP DP  RH WIND       PRES   REMARKS
CHARLESTON     SUNNY     48  35  60 SW8       29.86R
$$

WVZ022-031-211300-
North Central West Virginia

CITY           SKY/WX    TMP DP  RH WIND       PRES   REMARKS
CLARKSBURG     MOSUNNY   46  35  65 SW10      29.82R
MORGANTOWN     MOSUNNY   47  32  56 SW6       29.80S
$$

WVZ025-035-042-045-211300-
Southern West Virginia

CITY           SKY/WX    TMP DP  RH WIND       PRES   REMARKS
BECKLEY        SUNNY     43  30  60 W6        29.86R
LOGAN            N/A     46  36  66 SE5       29.85R
BLUEFIELD      MOSUNNY   44  31  60 W10       29.86R
LEWISBURG      SUNNY     46  33  61 CALM      29.84S
$$

WVZ047-211300-
Northern Mountains of West Virginia

CITY           SKY/WX    TMP DP  RH WIND       PRES   REMARKS
ELKINS         MOSUNNY   43  33  68 W10G33    29.83R
$$

WVZ052-211300-
Eastern Panhandle of West Virginia

CITY           SKY/WX    TMP DP  RH WIND       PRES   REMARKS
MARTINSBURG    SUNNY     53  32  44 W17G23    29.77R
PETERSBURG     PTSUNNY   50  32  50 W7        29.80S
$$



USA.gov is the U.S. government's official web portal to all federal, state and local government web resources and services.